EW0139 Weather Reports


time (UTC)temp
F
wind
direction
speed
knots
gust
knots
rain 1hr
in
rain 24hr
in
rain mn
in
humidity
%
barometer
mb
20210122070551 8 11 0.0 0.0 0.00 0.00 0.00 79 1017.0
20210122065546 8 11 0.0 0.9 0.00 0.00 0.00 79 1017.0
20210122064540 8 11 1.7 3.5 0.00 0.00 0.00 80 1017.0
20210122063538 8 11 0.9 2.6 0.00 0.00 0.00 80 1017.0
20210122062551 8 11 1.7 2.6 0.00 0.00 0.00 79 1017.0
20210122061555 8 11 0.0 0.0 0.00 0.00 0.00 80 1017.0
20210122060550 8 11 0.0 0.0 0.00 0.00 0.00 79 1017.0
20210122055540 9 11 0.0 0.0 0.00 0.00 0.00 80 1017.1
20210122054537 9 11 0.0 0.0 0.00 0.00 0.00 80 1017.1
20210122053552 9 11 0.0 0.0 0.00 0.00 0.00 79 1017.2
20210122052553 10 11 0.0 0.0 0.00 0.00 0.00 79 1017.2
20210122051550 10 11 0.0 0.0 0.00 0.00 0.00 80 1017.2
20210122050544 10 11 0.0 2.6 0.00 0.00 0.00 80 1017.3
20210122045534 10 11 0.9 1.7 0.00 0.00 0.00 80 1017.1
20210122044544 10 11 0.0 0.0 0.00 0.00 0.00 79 1017.1
20210122043546 10 11 0.0 0.0 0.00 0.00 0.00 79 1017.3
20210122042540 11 11 0.0 0.0 0.00 0.00 0.00 79 1017.2
20210122041553 11 11 0.0 0.0 0.00 0.00 0.00 79 1017.2
20210122040548 12 11 0.0 0.0 0.00 0.00 0.00 79 1017.1
20210122035545 12 11 0.0 0.0 0.00 0.00 0.00 79 1017.8
20210122034545 14 11 0.0 0.0 0.00 0.00 0.00 80 1017.8
20210122033557 14 11 0.0 0.0 0.00 0.00 0.00 79 1017.8
20210122032549 14 11 0.0 0.0 0.00 0.00 0.00 79 1017.7
20210122031535 14 11 0.0 0.0 0.00 0.00 0.00 79 1017.7
20210122030547 14 11 0.0 0.0 0.00 0.00 0.00 78 1017.8
20210122025544 14 11 0.0 2.6 0.00 0.00 0.00 78 1017.8
20210122024542 14 11 0.0 0.0 0.00 0.00 0.00 76 1017.8
20210122023536 15 11 0.0 0.0 0.00 0.00 0.00 74 1017.3
20210122022553 16 11 0.0 0.0 0.00 0.00 0.00 75 1017.3
20210122021549 17 11 0.0 0.0 0.00 0.00 0.00 73 1017.3
20210122020551 18 11 0.0 0.0 0.00 0.00 0.00 74 1016.9
20210122015539 19 11 0.0 0.0 0.00 0.00 0.00 73 1016.7
20210122014551 20 11 0.0 2.6 0.00 0.00 0.00 73 1016.7
20210122013552 20 11 0.0 0.9 0.00 0.00 0.00 73 1016.7
20210122012550 20 11 0.0 0.9 0.00 0.00 0.00 73 1016.7
20210122011546 20 11 0.0 0.0 0.00 0.00 0.00 72 1016.7
20210122010538 21 11 0.0 0.0 0.00 0.00 0.00 71 1016.7
20210122005537 21 11 0.0 0.0 0.00 0.00 0.00 70 1016.6
20210122004533 21 11 0.0 1.7 0.00 0.00 0.00 70 1016.6
20210122003549 21 11 1.7 4.3 0.00 0.00 0.00 70 1016.6
20210122002543 21 11 0.9 2.6 0.00 0.00 0.00 69 1016.6
20210122001542 21 11 1.7 2.6 0.00 0.00 0.00 69 1016.6
20210122000544 22 11 0.0 1.7 0.00 0.00 0.00 69 1016.5
20210121235536 22 11 0.9 3.5 0.00 0.00 0.00 68 1016.5
20210121234547 22 11 3.5 5.2 0.00 0.00 0.00 68 1016.5
20210121233544 22 11 2.6 6.1 0.00 0.00 0.00 68 1016.4
20210121232540 22 4 3.5 6.1 0.00 0.00 0.00 68 1016.5
20210121231551 22 4 4.3 7.0 0.00 0.00 0.00 70 1016.5
20210121230553 22 357 3.5 7.0 0.00 0.00 0.00 70 1016.6
20210121225546 22 4 5.2 8.7 0.00 0.00 0.00 68 1016.6
20210121224546 22 357 4.3 8.7 0.00 0.00 0.00 68 1016.6
20210121223539 22 4 5.2 7.0 0.00 0.00 0.00 68 1017.2
20210121222544 23 5 5.2 8.7 0.00 0.00 0.00 67 1017.3
20210121221553 23 357 6.1 8.7 0.00 0.00 0.00 67 1017.3
20210121220545 23 358 6.1 9.6 0.00 0.00 0.00 67 1016.5
20210121215546 23 12 6.1 10.4 0.00 0.00 0.00 67 1016.2
20210121214537 23 2 5.2 10.4 0.00 0.00 0.00 67 1016.2
20210121213545 23 9 6.1 9.6 0.00 0.00 0.00 67 1016.1
20210121212552 23 357 7.8 10.4 0.00 0.00 0.00 67 1016.1
20210121211547 23 348 9.6 11.3 0.00 0.00 0.00 67 1016.1
20210121210545 23 352 7.0 12.2 0.00 0.00 0.00 67 1016.7
20210121205538 23 348 7.0 11.3 0.00 0.00 0.00 67 1016.7
20210121204538 24 344 7.8 10.4 0.00 0.00 0.00 67 1016.7
20210121203538 24 340 8.7 11.3 0.00 0.00 0.00 67 1016.7
20210121202544 23 338 7.0 11.3 0.00 0.00 0.00 67 1016.8
20210121201551 23 342 7.8 11.3 0.00 0.00 0.00 68 1016.8
20210121200548 23 354 8.7 12.2 0.00 0.00 0.00 67 1016.9
20210121195543 23 5 7.0 10.4 0.00 0.00 0.00 68 1016.9
20210121194538 23 359 4.3 10.4 0.00 0.00 0.00 67 1016.9
20210121193536 23 341 8.7 11.3 0.00 0.00 0.00 68 1017.1
20210121192552 23 345 8.7 12.2 0.00 0.00 0.00 68 1017.0
20210121191550 24 355 7.8 13.9 0.00 0.00 0.00 67 1017.0
20210121190546 24 340 11.3 13.9 0.00 0.00 0.00 67 1016.9
20210121185540 24 2 7.8 11.3 0.00 0.00 0.00 67 1016.9
20210121184537 24 355 9.6 12.2 0.00 0.00 0.00 68 1016.9
20210121183535 24 6 7.8 12.2 0.00 0.00 0.00 68 1016.9
20210121182549 24 338 9.6 16.5 0.00 0.00 0.00 68 1017.1
20210121181544 24 351 9.6 15.6 0.00 0.00 0.00 69 1017.1
20210121180541 24 11 9.6 12.2 0.00 0.00 0.00 68 1017.1
20210121175536 24 4 8.7 14.8 0.00 0.00 0.00 68 1017.0
20210121174538 24 5 9.6 15.6 0.00 0.00 0.00 68 1017.0
20210121173536 24 5 7.8 13.9 0.00 0.00 0.00 68 1016.9
20210121172551 24 354 7.8 12.2 0.00 0.00 0.00 68 1016.7
20210121171547 25 347 9.6 11.3 0.00 0.00 0.00 68 1016.7
20210121170541 24 345 7.8 10.4 0.00 0.00 0.00 68 1016.7
20210121165540 24 355 7.0 9.6 0.00 0.00 0.00 69 1016.5
20210121164538 24 2 7.0 9.6 0.00 0.00 0.00 69 1016.5
20210121163552 24 349 6.1 10.4 0.00 0.00 0.00 70 1016.4
20210121162546 24 11 7.0 10.4 0.00 0.00 0.00 70 1016.2
20210121161545 25 354 8.7 11.3 0.00 0.00 0.00 70 1016.2
20210121160541 25 352 8.7 11.3 0.00 0.00 0.00 71 1015.6
20210121155536 25 4 8.7 13.9 0.00 0.00 0.00 72 1015.5
20210121154550 26 337 5.2 10.4 0.00 0.00 0.00 73 1015.5
20210121153547 26 338 7.8 10.4 0.00 0.00 0.00 73 1015.1
20210121152544 26 354 5.2 10.4 0.00 0.00 0.00 73 1015.0
20210121151540 26 355 7.8 12.2 0.00 0.00 0.00 71 1015.0
20210121150555 25 335 7.8 10.4 0.00 0.00 0.00 71 1014.7
20210121145548 25 337 7.8 11.3 0.00 0.00 0.00 70 1014.6
20210121144545 25 340 8.7 12.2 0.00 0.00 0.00 69 1014.6
20210121143609 25 334 9.6 12.2 0.00 0.00 0.00 68 1014.2
20210121142539 26 333 8.7 11.3 0.00 0.00 0.00 67 1014.1
20210121141535 26 333 6.1 10.4 0.00 0.00 0.00 67 1014.1
20210121140550 26 335 7.0 12.2 0.00 0.00 0.00 67 1013.7
20210121135545 26 309 7.8 10.4 0.00 0.00 0.00 66 1013.5
20210121134542 26 324 8.7 11.3 0.00 0.00 0.00 66 1013.5
20210121133541 26 330 7.8 11.3 0.00 0.00 0.00 67 1013.5
20210121132551 25 325 6.1 9.6 0.00 0.00 0.00 68 1013.3
20210121131546 25 328 8.7 11.3 0.00 0.00 0.00 68 1013.3
20210121130547 25 330 7.8 13.9 0.00 0.00 0.00 67 1012.8
20210121125542 25 330 8.7 11.3 0.00 0.00 0.00 68 1012.8
20210121124539 25 330 7.8 15.6 0.00 0.00 0.00 67 1012.8
20210121123536 25 334 11.3 15.6 0.00 0.00 0.00 67 1012.6
20210121122548 25 320 9.6 14.8 0.00 0.00 0.00 67 1012.8
20210121121545 24 325 8.7 11.3 0.00 0.00 0.00 68 1012.8
20210121120723 24 323 5.2 9.6 0.00 0.00 0.00 68 1012.4
20210121115534 24 325 6.1 9.6 0.00 0.00 0.00 67 1012.2
20210121114552 24 323 6.1 9.6 0.00 0.00 0.00 67 1012.2
20210121113548 24 316 7.0 9.6 0.00 0.00 0.00 66 1012.1
20210121112539 25 309 5.2 13.0 0.00 0.00 0.00 64 1012.7
20210121111553 25 297 7.8 13.9 0.00 0.00 0.00 64 1012.7
20210121110553 25 316 9.6 15.6 0.00 0.00 0.00 64 1012.2
20210121105555 24 313 9.6 14.8 0.00 0.00 0.00 66 1012.2
20210121104539 23 310 7.8 10.4 0.00 0.00 0.00 67 1012.2
20210121103540 23 301 4.3 7.0 0.00 0.00 0.00 67 1012.1
20210121102551 23 289 1.7 6.1 0.00 0.00 0.00 67 1012.0
20210121101543 22 289 2.6 5.2 0.00 0.00 0.00 67 1012.0
20210121100538 22 289 2.6 4.3 0.00 0.00 0.00 67 1011.6
20210121095535 23 289 0.0 4.3 0.00 0.00 0.00 66 1011.4
20210121094558 23 289 1.7 8.7 0.00 0.00 0.00 65 1011.4
20210121093545 24 287 5.2 12.2 0.00 0.00 0.00 64 1011.1
20210121092539 24 275 6.1 11.3 0.00 0.00 0.00 64 1010.7
20210121091538 25 255 5.2 7.8 0.00 0.00 0.00 61 1010.7
20210121090553 27 309 8.7 11.3 0.00 0.00 0.00 58 1011.2
20210121085545 28 311 7.8 12.2 0.00 0.00 0.00 57 1011.0
20210121084545 28 306 10.4 14.8 0.00 0.00 0.00 57 1011.0
20210121083539 28 321 7.8 15.6 0.00 0.00 0.00 56 1010.8
20210121082550 28 306 11.3 15.6 0.00 0.00 0.00 56 1010.7
20210121081547 28 299 9.6 16.5 0.00 0.00 0.00 55 1010.7
20210121080542 28 297 10.4 13.9 0.00 0.00 0.00 55 1009.9
20210121075537 28 304 9.6 12.2 0.00 0.00 0.00 55 1010.5
20210121074533 29 313 8.7 13.9 0.00 0.00 0.00 54 1010.5
20210121073538 29 325 12.2 15.6 0.00 0.00 0.00 54 1010.3
20210121072552 28 321 9.6 15.6 0.00 0.00 0.00 55 1009.4
20210121071603 28 313 7.8 10.4 0.00 0.00 0.00 56 1009.4